Location: Oshawa
(43.9000°N, 78.8670°W)
Time: 05:42:44
(UTC-04:00)

ITAMSAT 1 - Visible Passes

Search period start: 23 July 2014 00:00
Search period end: 02 August 2014 00:00
Orbit: 785 x 798 km, 98.7° (Epoch: 21 July)

Date Brightness Start Highest point End Pass type
(mag) Time Alt. Az. Time Alt. Az. Time Alt. Az.
23 Jul 8.2 03:14:06 10° NNE 03:19:10 51° E 03:21:37 28° SSE visible
23 Jul 9.1 04:54:21 10° NNW 04:58:19 23° WNW 05:02:15 10° WSW visible
24 Jul 9.1 02:45:28 10° NE 02:49:55 28° E 02:52:07 21° SE visible
24 Jul 8.4 04:24:43 10° N 04:29:30 38° WNW 04:32:52 18° SW visible
25 Jul 9.8 02:17:31 10° NE 02:20:33 16° E 02:22:38 13° ESE visible
25 Jul 7.7 03:55:23 10° N 04:00:33 69° WNW 04:03:23 27° SSW visible
26 Jul 7.8 03:26:18 10° NNE 03:31:29 66° ESE 03:33:53 32° S visible
26 Jul 9.4 05:07:02 10° NNW 05:10:27 18° WNW 05:13:52 10° WSW visible
27 Jul 8.8 02:57:31 10° NNE 03:02:17 36° E 03:04:23 26° SE visible
27 Jul 8.7 04:37:12 10° N 04:41:41 31° WNW 04:45:08 15° WSW visible
28 Jul 9.5 02:29:12 10° NE 02:32:58 20° E 02:34:53 17° ESE visible
28 Jul 7.9 04:07:45 10° N 04:12:48 54° WNW 04:15:38 25° SW visible
29 Jul 10.1 02:02:42 10° ENE 02:03:31 10° E 02:04:19 10° E visible
29 Jul 7.6 03:38:34 10° NNE 03:43:47 85° ESE 03:46:08 34° S visible
29 Jul 9.6 05:19:52 10° NNW 05:22:34 14° WNW 05:25:16 10° W visible
30 Jul 8.4 03:09:39 10° NNE 03:14:38 46° E 03:16:38 31° SSE visible
30 Jul 9.0 04:49:44 10° N 04:53:51 25° WNW 04:57:23 13° WSW visible
31 Jul 9.2 02:41:05 10° NE 02:45:22 26° E 02:47:08 21° SE visible
31 Jul 8.2 04:20:09 10° N 04:25:01 42° WNW 04:27:53 22° SW visible
01 Aug 9.9 02:13:21 10° ENE 02:15:58 14° E 02:17:38 12° ESE visible
01 Aug 7.6 03:50:52 10° N 03:56:03 76° WNW 03:58:23 33° SSW visible
01 Aug 9.7 05:33:05 10° NW 05:34:39 11° NW 05:36:14 10° WNW visible
